Location: Newark
(40.3500°N, 15.2333°E)
Time: 07:48:10
(UTC+00:00)

Altair - Pass Details

Date: 26 January 2020
Orbit: 1502 x 1682 km, 47.2° (Epoch: 17 February)

Event Time Altitude Azimuth Distance (km) Brightness Sun altitude
Rises 13:37:59 0° 299° (WNW) 4,937 10.3 21.8°
Reaches altitude 10° 13:41:12 10° 296° (WNW) 3,941 9.9 21.4°
Maximum altitude 13:51:07 62° 219° (SW) 1,820 8.8 20.2°
Drops below altitude 10° 14:00:42 10° 142° (SE) 3,822 9.8 19.0°
Sets 14:03:48 0° 138° (SE) 4,781 10.2 18.6°
